[Iaude] MPEC V64: 2023 VU1 [a=2.57,e=0.53,i=3.7,H=22.6]

mpec at marsden.cfa.harvard.edu mpec at marsden.cfa.harvard.edu
Mon Nov 6 06:56:53 EST 2023


M.P.E.C. 2023-V64                              Issued 2023 November 6, 11:54 UT

     The Minor Planet Electronic Circulars contain information on unusual
         minor planets, routine data on comets and natural satellites,
         and occasional editorial announcements.  They are published
    on behalf of Division F of the International Astronomical Union by the
          Minor Planet Center, Smithsonian Astrophysical Observatory,
                          Cambridge, MA 02138, U.S.A.
			  
             Prepared using the Tamkin Foundation Computer Network

                              MPC at CFA.HARVARD.EDU
            URL https://www.minorplanetcenter.net/    ISSN 1523-6714

                                    2023 VU1                                    


Observations:
     K23V01U* C2023 11 04.47025103 29 59.689+01 57 55.26         21.23wXEV064F52
     K23V01U  C2023 11 04.48273603 30 00.617+01 57 51.96         21.44wXEV064F52
     K23V01U  C2023 11 04.49518403 30 01.530+01 57 48.84         21.36wXEV064F52
     K23V01U  C2023 11 04.50756603 30 02.429+01 57 45.88         21.47wXEV064F52
     K23V01U  C2023 11 04.56912703 30 07.033+01 57 30.70         21.12GVEV064F51
     K23V01U  C2023 11 04.56994203 30 07.092+01 57 30.46         21.12GVEV064F51
     K23V01U KC2023 11 05.30670203 31 11.676+01 54 31.46         20.67GVEV064I52
     K23V01U KB2023 11 05.31048 03 31 11.50 +01 54 26.7          20.5 GVEV064734
     K23V01U KC2023 11 05.31616703 31 12.421+01 54 28.58         20.86GVEV064I52
     K23V01U KB2023 11 05.31914 03 31 12.22 +01 54 25.2          20.5 GVEV064734
     K23V01U KB2023 11 05.32781 03 31 12.85 +01 54 22.9          20.3 GVEV064734
     K23V01U KC2023 11 05.34033203 31 14.243+01 54 22.90         21.00GVEV064I52
     K23V01U KC2023 11 05.34966203 31 14.880+01 54 21.49         20.97GVEV064I52
     K23V01U KC2023 11 06.27256503 32 35.070+01 50 59.75         20.92GVEV064I52
     K23V01U KC2023 11 06.28100303 32 35.700+01 50 57.48         20.67GVEV064I52
     K23V01U KC2023 11 06.28783803 32 36.146+01 50 56.76               VEV064I52
     K23V01U KC2023 11 06.29886503 32 37.014+01 50 54.60         21.83GVEV064I52
     K23V01U 1C2023 11 06.38147303 32 43.206+01 50 37.10         21.20GVEV064G96
     K23V01U 1C2023 11 06.38667203 32 43.638+01 50 35.74         21.41GVEV064G96
     K23V01U 1C2023 11 06.39188703 32 44.034+01 50 35.23         20.87GVEV064G96
     K23V01U 1C2023 11 06.39710703 32 44.387+01 50 33.97         20.56GVEV064G96

Observer details:
734 Farpoint Observatory, Eskridge.  Observers D. Cromer, G. Hug, D. Goodin,
    R. Valentine.  Measurer G. Hug.  0.69-m f/3.54 reflector + CMO.
F51 Pan-STARRS 1, Haleakala.  Observers J. Bulger, T. Lowe, P. Minguez, A.
    Schultz, I. Smith.  Measurers K. Chambers, T. de Boer, J. Fairlamb, H.
    Gao, M. Huber, C.-C. Lin, E. Magnier, Y. Ramanjooloo, R. Wainscoat, R.
    Weryk.  1.8-m Ritchey-Chretien + CCD.
F52 Pan-STARRS 2, Haleakala.  Observers J. Bulger, T. Lowe, P. Minguez, A.
    Schultz, I. Smith.  Measurers K. Chambers, T. de Boer, J. Fairlamb, H.
    Gao, M. Huber, C.-C. Lin, E. Magnier, Y. Ramanjooloo, R. Wainscoat, R.
    Weryk.  1.8-m Ritchey-Chretien + CCD.
G96 Mt. Lemmon Survey.  Observer J. B. Fazekas.  Measurers E. C. Beshore, D.
    Fay, J. B. Fazekas, D. C. Fuls, A. R. Gibbs, A. D. Grauer, H. Groeller, J.
    K. Hogan, R. A. Kowalski, S. M. Larson, G. J. Leonard, D. Rankin, R. L.
    Seaman, F. C. Shelly, K. W. Wierzchos.  1.5-m reflector + 10K CCD.
I52 Steward Observatory, Mt. Lemmon Station.  Observer R. A. Kowalski.
    Measurers E. C. Beshore, D. Fay, J. B. Fazekas, D. C. Fuls, A. R. Gibbs,
    A. D. Grauer, H. Groeller, J. K. Hogan, R. A. Kowalski, S. M. Larson, G.
    J. Leonard, D. Rankin, R. L. Seaman, F. C. Shelly, K. W. Wierzchos.  1.0-m
    prime focus + CCD.

Orbital elements:
2023 VU1                                                 Earth MOID = 0.2248 AU
Epoch 2023 Sept. 13.0 TT = JDT 2460200.5                Veres                   
M 339.38409              (2000.0)            P               Q                  
n   0.23887646     Peri.  302.01103     +0.27974779     -0.95889485             
a   2.5724907      Node   131.66711     +0.90093034     +0.24507445             
e   0.5322989      Incl.    3.65019     +0.33176152     +0.14303559             
P   4.13           H   22.68          G   0.15           U   9                  
Residuals in seconds of arc
231104 F52  0.0   0.1+    231105 734  0.6-  0.4-    231106 I52  0.2+  0.4-
231104 F52  0.2+  0.1-    231105 I52  0.2+  0.2-    231106 I52  0.8-  0.3+
231104 F52  0.1+  0.2-    231105 734  0.4+  0.1+    231106 I52  0.2-  0.4+
231104 F52  0.1-  0.0     231105 734  0.1-  0.2-    231106 G96  0.3-  0.0
231104 F51  0.0   0.0     231105 I52  0.5+  0.3-    231106 G96  0.3+  0.3-
231104 F51  0.1-  0.0     231105 I52  0.4-  0.4+    231106 G96  0.3+  0.3+
231105 I52  0.3-  0.6+    231106 I52  0.3+  0.1+    231106 G96  0.3-  0.1+

Ephemeris:
2023 VU1                 a,e,i = 2.57, 0.53, 4                   q = 1.2032
Date    TT    R. A. (2000) Decl.     Delta      r    Elong.  Phase     V
2023 10 07    02 50 14.1 +04 44 20   0.4318  1.3896   149.6    21.3    22.6
...
2023 10 22    03 11 10.3 +03 12 58   0.3407  1.3160   157.1    17.1    21.8
...
2023 10 30    03 22 16.7 +02 24 36   0.3038  1.2828   159.9    15.4    21.5
...
2023 11 05    03 30 45.1 +01 55 58   0.2811  1.2612   161.3    14.6    21.2
2023 11 06    03 32 10.9 +01 52 13   0.2778  1.2579   161.4    14.5    21.2
2023 11 07    03 33 37.1 +01 48 51   0.2745  1.2547   161.6    14.5    21.2
...
2023 11 13    03 42 24.6 +01 37 36   0.2574  1.2372   162.1    14.3    21.0
...
2023 11 21    03 54 48.2 +01 53 31   0.2408  1.2193   161.9    14.5    20.8
...
2023 12 06    04 20 54.7 +04 20 24   0.2283  1.2034   160.9    15.6    20.7

M. P. C. Staff               (C) Copyright 2023 MPC           M.P.E.C. 2023-V64




More information about the Iaude mailing list